Find Starlink 36460

NORAD ID: 67432 Int'l Des: 2026-005 Owner: SPXS Country: US Constellation: starlink operational
LEOCIRCULAR

リアルタイム位置

3D地球を読み込み中...

Starlink 36460について

説明を読み込み中...

次回通過

Passes for default location (London). Set your location on the main map for personalized predictions.

高度履歴

Loading altitude history...

軌道要素

1 67432U 26005AE 26106.49643419 .00021822 00000-0 79942-3 0 9999
2 67432 43.0061 24.8809 0001749 241.6764 118.3911 15.27611319 14465
Epoch: Apr 16, 2026 • Age: 14 hours

現在のステータス

高度 495.0 km
速度 7.62 km/s
衛星直下点 -42.90°S, 54.31°E
打ち上げ日 Jan 12, 2026
運用期間 0.2 years
タイプ internet

技術仕様

分類 Payload
質量 575.00 kg
乾燥質量 530.00 kg
総質量 575.00 kg
長さ 0.30 m
直径 4.10 m
スパン 29.00 m
形状 Box + pan
製造者 SPXS
バスタイプ Starlink V2MO
フェーズステータス In Orbit
所有者/国 SPXS/US

Most Searched